Location: Sungai Bunut
(2.6333°N, 113.7333°E)
Time: 10:26:20
(UTC+00:00)

Transit 2A Rocket - Pass Details

Date: 06 December 2023
Orbit: 590 x 905 km, 66.7° (Epoch: 01 March)

Event Time Altitude Azimuth Distance (km) Brightness Sun altitude
Rises 12:24:52 0° 219° (SW) 3,322 9.2 -30.6°
Reaches altitude 10° 12:27:41 10° 230° (SW) 2,335 8.3 -31.3°
Maximum altitude 12:32:13 28° 289° (WNW) 1,346 6.6 -32.3°
Enters shadow 12:32:39 28° 298° (WNW) 1,351 6.5 -32.4°
Drops below altitude 10° 12:36:25 10° 348° (NNW) 2,147 - -33.3°
Sets 12:38:55 0° 360° (N) 3,008 - -33.8°
